Flag for U.S.A. Weather past 2 weeks in Columbia, South Carolina, U.S.A.

Now
77 °F

Sunny.


Feels Like: 78 °F
Forecast: 53 / 83 °F
Wind: No wind

Location: Columbia Owens Downtown Airport

Current Time: May 22, 2015 at 8:31:22 PM

Latest Report: May 22, 2015 at 7:53 PM


Visibility: 10 mi

Pressure: 30.19 "Hg

Humidity: 31%

Dew point: 44 °F

Location of ColumbiaLocation

Historic Weather in Columbia — Graph

°F

Columbia temperature yesterday

Maximum temperature yesterday: 91 °F (at 3:53 PM)
Minimum temperature yesterday: 69 °F (at 5:53 AM)
Average temperature yesterday: 80 °F

Past Weeks' High & Low Weather Summary

 TemperatureHumidityPressure
High91 °F (May 11, 1:53 PM)91% (May 15, 3:53 AM)30.36 "Hg (May 15, 3:53 AM)
Low61 °F (May 14, 5:53 AM)23% (May 13, 4:53 PM)29.79 "Hg (May 21, 4:53 PM)
Average76 °F63%30.10 "Hg
* Reported May 7 6:53 PM — May 22 6:53 PM, Columbia, Weather by CustomWeather, © 2015

Note: Actual official high and low records may vary slightly from our data, if they occured in-between our weather recording intervals... More about our weather records

Advertising

Columbia weather history for previous 24 hours

 ConditionsComfort  
Time TempWeatherWind HumidityBarometerVisibility
6:53 PM
Fri, May 22
80 °FSunny.No wind27%30.18 "Hg10 mi
5:53 PM80 °FSunny.6 mph28%30.17 "Hg10 mi
4:53 PM80 °FSunny.3 mph30%30.17 "Hg10 mi
3:53 PM79 °FPassing clouds.6 mph32%30.17 "Hg10 mi
2:53 PM76 °FSunny.3 mph33%30.19 "Hg10 mi
1:53 PM75 °FSunny.No wind34%30.19 "Hg10 mi
12:53 PM72 °FScattered clouds.No wind37%30.20 "Hg10 mi
11:53 AM71 °FSunny.5 mph38%30.21 "Hg10 mi
10:53 AM69 °FOvercast.8 mph41%30.21 "Hg10 mi
9:53 AM67 °FPartly sunny.8 mph44%30.19 "Hg10 mi
8:53 AM66 °FOvercast.7 mph47%30.18 "Hg10 mi
7:53 AM65 °FOvercast.9 mph47%30.14 "Hg10 mi
6:53 AM66 °FOvercast.7 mph47%30.10 "Hg10 mi
5:53 AM68 °FOvercast.8 mph49%30.05 "Hg10 mi
4:53 AM69 °FMostly cloudy.7 mph61%30.02 "Hg10 mi
3:53 AM71 °FOvercast.6 mph42%30.00 "Hg10 mi
2:53 AM72 °FMostly cloudy.6 mph41%29.98 "Hg10 mi
1:53 AM73 °FMostly cloudy.6 mph46%29.97 "Hg10 mi
12:53 AM75 °FPassing clouds.7 mph48%29.96 "Hg10 mi
11:53 PM
Thu, May 21
77 °FClear.10 mph50%29.94 "Hg10 mi
10:53 PM79 °FClear.12 mph45%29.92 "Hg10 mi
9:53 PM81 °FClear.9 mph42%29.88 "Hg10 mi
8:53 PM83 °FSunny.14 mph41%29.85 "Hg10 mi
Weather by CustomWeather, © 2015

See weather overviewHow to use our weather pages